| time (UTC) | temp F | wind direction | speed MPH | gust MPH | rain 1hr in | rain 24hr in | rain mn in | humidity % | barometer mb |
| 20260504221200 | 80 | 37 | 1.0 | 2.0 | 0.00 | 0.00 | 0.00 | 32 | 1003.5 |
| 20260504220656 | 81 | 29 | 3.0 | 5.0 | 0.00 | 0.00 | 0.00 | 33 | 1003.6 |
| 20260504220154 | 81 | 34 | 3.0 | 5.0 | 0.00 | 0.00 | 0.00 | 32 | 1003.6 |
| 20260504215650 | 81 | 19 | 1.0 | 2.0 | 0.00 | 0.00 | 0.00 | 32 | 1003.4 |
| 20260504215148 | 82 | 38 | 4.0 | 8.0 | 0.00 | 0.00 | 0.00 | 33 | 1003.5 |
| 20260504214643 | 82 | 325 | 10.0 | 13.0 | 0.00 | 0.00 | 0.00 | 31 | 1003.2 |
| 20260504214140 | 81 | 31 | 4.0 | 6.0 | 0.00 | 0.00 | 0.00 | 33 | 1003.5 |
| 20260504213637 | 81 | 306 | 5.0 | 6.0 | 0.00 | 0.00 | 0.00 | 33 | 1003.4 |
| 20260504213133 | 80 | 47 | 4.0 | 5.0 | 0.00 | 0.00 | 0.00 | 34 | 1003.4 |
| 20260504212630 | 81 | 2 | 4.0 | 5.0 | 0.00 | 0.00 | 0.00 | 33 | 1003.4 |
| 20260504212127 | 81 | 302 | 5.0 | 6.0 | 0.00 | 0.00 | 0.00 | 33 | 1003.3 |
| 20260504211624 | 82 | 317 | 5.0 | 6.0 | 0.00 | 0.00 | 0.00 | 31 | 1003.2 |
| 20260504211120 | 82 | 7 | 3.0 | 6.0 | 0.00 | 0.00 | 0.00 | 33 | 1003.2 |
| 20260504210619 | 82 | 24 | 2.0 | 2.0 | 0.00 | 0.00 | 0.00 | 32 | 1003.2 |
| 20260504210114 | 83 | 327 | 3.0 | 3.0 | 0.00 | 0.00 | 0.00 | 36 | 1003.1 |
| 20260504205612 | 83 | 326 | 4.0 | 5.0 | 0.00 | 0.00 | 0.00 | 30 | 1003.1 |
| 20260504205110 | 84 | 17 | 3.0 | 3.0 | 0.00 | 0.00 | 0.00 | 31 | 1003.0 |
| 20260504204608 | 83 | 8 | 4.0 | 5.0 | 0.00 | 0.00 | 0.00 | 31 | 1003.2 |
| 20260504204106 | 83 | 59 | 6.0 | 9.0 | 0.00 | 0.00 | 0.00 | 31 | 1003.2 |
| 20260504203605 | 83 | 23 | 5.0 | 6.0 | 0.00 | 0.00 | 0.00 | 31 | 1003.2 |
| 20260504203102 | 83 | 12 | 3.0 | 6.0 | 0.00 | 0.00 | 0.00 | 30 | 1003.2 |
| 20260504202557 | 83 | 36 | 3.0 | 5.0 | 0.00 | 0.00 | 0.00 | 32 | 1003.0 |
| 20260504202054 | 82 | 308 | 5.0 | 6.0 | 0.00 | 0.00 | 0.00 | 30 | 1003.2 |
| 20260504201551 | 82 | 289 | 5.0 | 9.0 | 0.00 | 0.00 | 0.00 | 24 | 1002.9 |
| 20260504201049 | 85 | 316 | 7.0 | 8.0 | 0.00 | 0.00 | 0.00 | 24 | 1003.1 |
| 20260504200545 | 85 | 42 | 3.0 | 5.0 | 0.00 | 0.00 | 0.00 | 28 | 1003.2 |
| 20260504200042 | 84 | 294 | 5.0 | 6.0 | 0.00 | 0.00 | 0.00 | 26 | 1003.1 |
| 20260504195538 | 84 | 2 | 3.0 | 5.0 | 0.00 | 0.00 | 0.00 | 26 | 1003.1 |
| 20260504195034 | 84 | 4 | 6.0 | 7.0 | 0.00 | 0.00 | 0.00 | 27 | 1003.1 |
| 20260504194531 | 83 | 339 | 2.0 | 2.0 | 0.00 | 0.00 | 0.00 | 30 | 1003.2 |
| 20260504194026 | 84 | 65 | 5.0 | 6.0 | 0.00 | 0.00 | 0.00 | 29 | 1003.1 |
| 20260504193523 | 83 | 15 | 3.0 | 5.0 | 0.00 | 0.00 | 0.00 | 28 | 1003.1 |
| 20260504193022 | 82 | 38 | 2.0 | 2.0 | 0.00 | 0.00 | 0.00 | 28 | 1003.0 |
| 20260504192520 | 82 | 45 | 1.0 | 1.0 | 0.00 | 0.00 | 0.00 | 30 | 1003.0 |
| 20260504192018 | 83 | 36 | 2.0 | 2.0 | 0.00 | 0.00 | 0.00 | 33 | 1003.3 |
| 20260504191515 | 84 | 51 | 5.0 | 6.0 | 0.00 | 0.00 | 0.00 | 30 | 1003.2 |
| 20260504191011 | 83 | 39 | 1.0 | 2.0 | 0.00 | 0.00 | 0.00 | 26 | 1003.1 |
| 20260504190507 | 83 | 24 | 3.0 | 3.0 | 0.00 | 0.00 | 0.00 | 26 | 1003.0 |
| 20260504190004 | 82 | 44 | 1.0 | 2.0 | 0.00 | 0.00 | 0.00 | 28 | 1002.9 |
| 20260504185501 | 83 | 18 | 1.0 | 1.0 | 0.00 | 0.00 | 0.00 | 27 | 1002.9 |
| 20260504184957 | 83 | 35 | 0.0 | 1.0 | 0.00 | 0.00 | 0.00 | 29 | 1003.1 |
| 20260504184453 | 83 | 35 | 0.0 | 1.0 | 0.00 | 0.00 | 0.00 | 28 | 1003.2 |
| 20260504183948 | 83 | 287 | 2.0 | 2.0 | 0.00 | 0.00 | 0.00 | 24 | 1003.1 |
| 20260504183446 | 82 | 331 | 1.0 | 2.0 | 0.00 | 0.00 | 0.00 | 24 | 1003.5 |
| 20260504182944 | 83 | 335 | 2.0 | 2.0 | 0.00 | 0.00 | 0.00 | 24 | 1003.4 |
| 20260504182440 | 82 | 271 | 2.0 | 3.0 | 0.00 | 0.00 | 0.00 | 24 | 1003.5 |
| 20260504181938 | 81 | 17 | 1.0 | 2.0 | 0.00 | 0.00 | 0.00 | 25 | 1003.5 |
| 20260504181435 | 81 | 349 | 4.0 | 5.0 | 0.00 | 0.00 | 0.00 | 27 | 1003.5 |
| 20260504180933 | 81 | 16 | 5.0 | 6.0 | 0.00 | 0.00 | 0.00 | 25 | 1003.5 |
| 20260504180432 | 81 | 39 | 3.0 | 5.0 | 0.00 | 0.00 | 0.00 | 30 | 1003.3 |
| 20260504175930 | 81 | 39 | 1.0 | 2.0 | 0.00 | 0.00 | 0.00 | 27 | 1003.6 |
| 20260504175426 | 81 | 321 | 2.0 | 3.0 | 0.00 | 0.00 | 0.00 | 31 | 1003.6 |
| 20260504174924 | 80 | 315 | 6.0 | 7.0 | 0.00 | 0.00 | 0.00 | 28 | 1003.9 |
| 20260504174421 | 80 | 289 | 3.0 | 5.0 | 0.00 | 0.00 | 0.00 | 31 | 1003.6 |
| 20260504173919 | 80 | 33 | 4.0 | 6.0 | 0.00 | 0.00 | 0.00 | 29 | 1003.7 |
| 20260504173415 | 80 | 32 | 2.0 | 3.0 | 0.00 | 0.00 | 0.00 | 27 | 1003.7 |
| 20260504172913 | 79 | 338 | 4.0 | 5.0 | 0.00 | 0.00 | 0.00 | 30 | 1003.6 |
| 20260504172409 | 80 | 42 | 4.0 | 5.0 | 0.00 | 0.00 | 0.00 | 29 | 1003.7 |
| 20260504171905 | 79 | 46 | 0.0 | 1.0 | 0.00 | 0.00 | 0.00 | 34 | 1003.8 |
| 20260504171402 | 79 | 49 | 2.0 | 3.0 | 0.00 | 0.00 | 0.00 | 31 | 1003.7 |
| 20260504170859 | 80 | 335 | 3.0 | 3.0 | 0.00 | 0.00 | 0.00 | 31 | 1003.7 |
| 20260504170355 | 80 | 349 | 3.0 | 3.0 | 0.00 | 0.00 | 0.00 | 32 | 1003.6 |
| 20260504160315 | 74 | 31 | 2.0 | 2.0 | 0.00 | 0.00 | 0.00 | 46 | 1003.8 |
| 20260504150739 | 69 | 0 | 3.0 | 3.0 | 0.00 | 0.00 | 0.00 | 48 | 1003.7 |
| 20260504150236 | 68 | 292 | 2.0 | 3.0 | 0.00 | 0.00 | 0.00 | 50 | 1003.7 |
| 20260504141205 | 62 | 53 | 1.0 | 1.0 | 0.00 | 0.00 | 0.00 | 63 | 1003.7 |
| 20260504140702 | 61 | 345 | 2.0 | 2.0 | 0.00 | 0.00 | 0.00 | 62 | 1004.2 |
| 20260504140158 | 60 | 30 | 0.0 | 0.0 | 0.00 | 0.00 | 0.00 | 62 | 1003.8 |
| 20260504130626 | 55 | 46 | 0.0 | 0.0 | 0.00 | 0.00 | 0.00 | 73 | 1003.9 |
| 20260504130123 | 54 | 45 | 0.0 | 1.0 | 0.00 | 0.00 | 0.00 | 75 | 1003.8 |
| 20260504110514 | 48 | 60 | 0.0 | 0.0 | 0.00 | 0.00 | 0.00 | 88 | 1003.9 |
| 20260504100431 | 48 | 65 | 0.0 | 1.0 | 0.00 | 0.00 | 0.00 | 86 | 1004.0 |
| 20260504081823 | 50 | 72 | 0.0 | 0.0 | 0.00 | 0.00 | 0.00 | 87 | 1005.5 |
| 20260504081321 | 50 | 72 | 1.0 | 1.0 | 0.00 | 0.00 | 0.00 | 86 | 1005.6 |
| 20260504080816 | 50 | 71 | 0.0 | 1.0 | 0.00 | 0.00 | 0.00 | 86 | 1005.9 |
| 20260504080313 | 50 | 71 | 0.0 | 0.0 | 0.00 | 0.00 | 0.00 | 87 | 1005.9 |
| 20260504070240 | 50 | 72 | 0.0 | 0.0 | 0.00 | 0.00 | 0.00 | 88 | 1007.2 |
| 20260504060201 | 51 | 67 | 0.0 | 0.0 | 0.00 | 0.00 | 0.00 | 87 | 1008.2 |
| 20260504050629 | 53 | 67 | 0.0 | 1.0 | 0.00 | 0.00 | 0.00 | 81 | 1008.6 |
| 20260504050126 | 54 | 67 | 0.0 | 1.0 | 0.00 | 0.00 | 0.00 | 79 | 1008.7 |
| 20260504045623 | 54 | 66 | 0.0 | 0.0 | 0.00 | 0.00 | 0.00 | 80 | 1008.9 |
| 20260504045118 | 54 | 66 | 0.0 | 0.0 | 0.00 | 0.00 | 0.00 | 80 | 1008.9 |
| 20260504044616 | 54 | 73 | 0.0 | 1.0 | 0.00 | 0.00 | 0.00 | 80 | 1009.0 |
| 20260504044112 | 54 | 73 | 0.0 | 0.0 | 0.00 | 0.00 | 0.00 | 79 | 1009.1 |
| 20260504043610 | 55 | 73 | 0.0 | 0.0 | 0.00 | 0.00 | 0.00 | 80 | 1009.3 |
| 20260504043107 | 55 | 73 | 0.0 | 0.0 | 0.00 | 0.00 | 0.00 | 79 | 1009.3 |
| 20260504042604 | 54 | 73 | 0.0 | 0.0 | 0.00 | 0.00 | 0.00 | 77 | 1009.5 |
| 20260504042101 | 55 | 73 | 0.0 | 0.0 | 0.00 | 0.00 | 0.00 | 80 | 1009.6 |
| 20260504041556 | 55 | 73 | 0.0 | 0.0 | 0.00 | 0.00 | 0.00 | 79 | 1009.6 |
| 20260504041053 | 55 | 73 | 0.0 | 0.0 | 0.00 | 0.00 | 0.00 | 79 | 1009.6 |
| 20260504040550 | 55 | 73 | 0.0 | 0.0 | 0.00 | 0.00 | 0.00 | 78 | 1009.4 |
| 20260504040047 | 55 | 73 | 0.0 | 0.0 | 0.00 | 0.00 | 0.00 | 75 | 1009.5 |
| 20260504035544 | 55 | 73 | 0.0 | 0.0 | 0.00 | 0.00 | 0.00 | 74 | 1009.4 |
| 20260504035040 | 55 | 73 | 0.0 | 0.0 | 0.00 | 0.00 | 0.00 | 74 | 1009.7 |
| 20260504034538 | 56 | 73 | 0.0 | 0.0 | 0.00 | 0.00 | 0.00 | 76 | 1009.5 |
| 20260504034035 | 56 | 73 | 0.0 | 0.0 | 0.00 | 0.00 | 0.00 | 77 | 1009.7 |
| 20260504033533 | 56 | 73 | 0.0 | 0.0 | 0.00 | 0.00 | 0.00 | 74 | 1009.6 |
| 20260504033030 | 56 | 73 | 0.0 | 0.0 | 0.00 | 0.00 | 0.00 | 75 | 1009.7 |
| 20260504032527 | 56 | 73 | 0.0 | 0.0 | 0.00 | 0.00 | 0.00 | 76 | 1009.7 |
| 20260504032023 | 56 | 73 | 0.0 | 0.0 | 0.00 | 0.00 | 0.00 | 74 | 1009.8 |
| 20260504031521 | 57 | 73 | 0.0 | 1.0 | 0.00 | 0.00 | 0.00 | 74 | 1009.9 |
| 20260504031016 | 57 | 73 | 0.0 | 0.0 | 0.00 | 0.00 | 0.00 | 74 | 1009.8 |
| 20260504030514 | 57 | 73 | 0.0 | 0.0 | 0.00 | 0.00 | 0.00 | 74 | 1010.0 |
| 20260504030010 | 57 | 73 | 0.0 | 0.0 | 0.00 | 0.00 | 0.00 | 68 | 1010.0 |
| 20260504025507 | 58 | 73 | 0.0 | 0.0 | 0.00 | 0.00 | 0.00 | 67 | 1010.0 |
| 20260504025004 | 58 | 73 | 0.0 | 0.0 | 0.00 | 0.00 | 0.00 | 68 | 1010.0 |
| 20260504024501 | 58 | 73 | 0.0 | 0.0 | 0.00 | 0.00 | 0.00 | 67 | 1010.3 |
| 20260504023958 | 58 | 73 | 0.0 | 0.0 | 0.00 | 0.00 | 0.00 | 69 | 1010.2 |
| 20260504023455 | 59 | 73 | 0.0 | 0.0 | 0.00 | 0.00 | 0.00 | 69 | 1010.2 |
| 20260504022950 | 59 | 73 | 0.0 | 0.0 | 0.00 | 0.00 | 0.00 | 66 | 1010.0 |
| 20260504022446 | 59 | 36 | 0.0 | 0.0 | 0.00 | 0.00 | 0.00 | 66 | 1010.1 |
| 20260504021943 | 59 | 36 | 0.0 | 0.0 | 0.00 | 0.00 | 0.00 | 63 | 1010.2 |
| 20260504021441 | 60 | 36 | 0.0 | 0.0 | 0.00 | 0.00 | 0.00 | 68 | 1010.0 |
| 20260504020938 | 60 | 36 | 0.0 | 0.0 | 0.00 | 0.00 | 0.00 | 63 | 1010.0 |
| 20260504020434 | 61 | 36 | 0.0 | 0.0 | 0.00 | 0.00 | 0.00 | 66 | 1009.9 |
| 20260504015931 | 61 | 36 | 0.0 | 0.0 | 0.00 | 0.00 | 0.00 | 64 | 1010.1 |
| 20260504015427 | 61 | 36 | 0.0 | 0.0 | 0.00 | 0.00 | 0.00 | 57 | 1009.9 |
| 20260504014923 | 62 | 35 | 0.0 | 0.0 | 0.00 | 0.00 | 0.00 | 56 | 1009.7 |
| 20260504014419 | 62 | 35 | 0.0 | 0.0 | 0.00 | 0.00 | 0.00 | 56 | 1009.9 |
| 20260504013916 | 63 | 35 | 0.0 | 0.0 | 0.00 | 0.00 | 0.00 | 59 | 1009.8 |
| 20260504013415 | 64 | 35 | 0.0 | 0.0 | 0.00 | 0.00 | 0.00 | 59 | 1010.1 |
| 20260504012910 | 65 | 35 | 0.0 | 0.0 | 0.00 | 0.00 | 0.00 | 60 | 1009.8 |
| 20260504012409 | 65 | 35 | 0.0 | 0.0 | 0.00 | 0.00 | 0.00 | 50 | 1010.3 |
| 20260504011905 | 66 | 35 | 0.0 | 0.0 | 0.00 | 0.00 | 0.00 | 50 | 1010.2 |
| 20260504011403 | 67 | 35 | 0.0 | 0.0 | 0.00 | 0.00 | 0.00 | 50 | 1010.2 |
| 20260504010858 | 67 | 35 | 0.0 | 0.0 | 0.00 | 0.00 | 0.00 | 52 | 1010.0 |
| 20260504010354 | 68 | 35 | 0.0 | 0.0 | 0.00 | 0.00 | 0.00 | 47 | 1010.2 |
| 20260504005851 | 68 | 35 | 0.0 | 0.0 | 0.00 | 0.00 | 0.00 | 46 | 1010.3 |
| 20260504005347 | 68 | 35 | 0.0 | 0.0 | 0.00 | 0.00 | 0.00 | 46 | 1010.4 |
| 20260504004845 | 68 | 33 | 0.0 | 0.0 | 0.00 | 0.00 | 0.00 | 51 | 1010.2 |
| 20260504004343 | 68 | 33 | 0.0 | 0.0 | 0.00 | 0.00 | 0.00 | 49 | 1010.4 |
| 20260504003839 | 69 | 33 | 0.0 | 0.0 | 0.00 | 0.00 | 0.00 | 53 | 1010.6 |
| 20260504003336 | 70 | 33 | 0.0 | 0.0 | 0.00 | 0.00 | 0.00 | 43 | 1010.6 |
| 20260504002832 | 71 | 33 | 0.0 | 0.0 | 0.00 | 0.00 | 0.00 | 47 | 1010.5 |
| 20260504002329 | 72 | 33 | 0.0 | 0.0 | 0.00 | 0.00 | 0.00 | 39 | 1010.6 |
| 20260504001827 | 72 | 33 | 0.0 | 0.0 | 0.00 | 0.00 | 0.00 | 37 | 1010.5 |
| 20260504001324 | 72 | 33 | 0.0 | 0.0 | 0.00 | 0.00 | 0.00 | 34 | 1010.6 |
| 20260504000821 | 73 | 27 | 0.0 | 0.0 | 0.00 | 0.00 | 0.00 | 34 | 1010.6 |
| 20260504000318 | 73 | 27 | 0.0 | 1.0 | 0.00 | 0.00 | 0.00 | 38 | 1010.6 |
| 20260503235816 | 73 | 27 | 0.0 | 0.0 | 0.00 | 0.00 | 0.00 | 37 | 1010.7 |
| 20260503235313 | 73 | 27 | 0.0 | 0.0 | 0.00 | 0.00 | 0.00 | 38 | 1010.8 |
| 20260503234810 | 73 | 27 | 0.0 | 0.0 | 0.00 | 0.00 | 0.00 | 34 | 1010.6 |
| 20260503234308 | 73 | 27 | 0.0 | 0.0 | 0.00 | 0.00 | 0.00 | 34 | 1010.8 |
| 20260503233806 | 73 | 26 | 0.0 | 1.0 | 0.00 | 0.00 | 0.00 | 41 | 1010.8 |
| 20260503233301 | 73 | 48 | 0.0 | 1.0 | 0.00 | 0.00 | 0.00 | 31 | 1010.9 |
| 20260503232758 | 74 | 31 | 0.0 | 0.0 | 0.00 | 0.00 | 0.00 | 36 | 1011.1 |
| 20260503232256 | 74 | 257 | 0.0 | 0.0 | 0.00 | 0.00 | 0.00 | 32 | 1010.9 |
| 20260503231754 | 74 | 41 | 0.0 | 1.0 | 0.00 | 0.00 | 0.00 | 33 | 1010.9 |
| 20260503231250 | 74 | 44 | 1.0 | 1.0 | 0.00 | 0.00 | 0.00 | 34 | 1011.0 |
| 20260503230746 | 75 | 36 | 1.0 | 1.0 | 0.00 | 0.00 | 0.00 | 34 | 1010.9 |
| 20260503230243 | 74 | 17 | 0.0 | 1.0 | 0.00 | 0.00 | 0.00 | 37 | 1011.0 |
| 20260503225741 | 75 | 31 | 1.0 | 1.0 | 0.00 | 0.00 | 0.00 | 36 | 1011.1 |
| 20260503225241 | 74 | 0 | 1.0 | 1.0 | 0.00 | 0.00 | 0.00 | 34 | 1010.9 |
| 20260503224738 | 74 | 355 | 1.0 | 2.0 | 0.00 | 0.00 | 0.00 | 31 | 1011.2 |
| 20260503224236 | 75 | 31 | 1.0 | 1.0 | 0.00 | 0.00 | 0.00 | 33 | 1011.0 |
| 20260503223733 | 75 | 38 | 0.0 | 1.0 | 0.00 | 0.00 | 0.00 | 32 | 1011.0 |
| 20260503223231 | 75 | 341 | 2.0 | 2.0 | 0.00 | 0.00 | 0.00 | 35 | 1011.1 |
| 20260503222727 | 76 | 1 | 2.0 | 2.0 | 0.00 | 0.00 | 0.00 | 35 | 1011.0 |
| 20260503222225 | 75 | 36 | 1.0 | 2.0 | 0.00 | 0.00 | 0.00 | 32 | 1011.0 |
| 20260503221723 | 74 | 49 | 0.0 | 1.0 | 0.00 | 0.00 | 0.00 | 30 | 1010.9 |